User: anonymous   Login
Location: Unspecified
(0.0000°N, 0.0000°E)
Time: 00:44:44
(UTC+00:00)
Language:

ESSA 7 - Orbit

View from above orbital plane
View from above orbital plane
View from above satellite
View from above satellite

Ground track
Ground track

The orbit data is extracted from the following two-line orbital elements,

1  3345U 68069A   18265.57637663 -.00000028 +00000-0 +93888-4 0  9990
2  3345 101.4409 297.6738 0026285 288.5423 228.0953 12.52973058291219
Epoch (UTC): 22 September 2018 13:49:58
Eccentricity: 0.0026285
inclination: 101.4409°
perigee height: 1431 km
apogee height: 1472 km
right ascension of ascending node: 297.6738°
argument of perigee: 288.5423°
revolutions per day: 12.52973058
mean anomaly at epoch: 228.0953°
orbit number at epoch: 29121

The dashed part of the orbit path shows where the satellite is in the earth's shadow,  

DLR